Location: Hermaringen
(48.5952°N, 10.2585°E)
Time: 22:33:02
(UTC+00:00)

Altair - Pass Details

Date: 17 February 2026
Orbit: 1502 x 1682 km, 47.2° (Epoch: 10 March)

Event Time Altitude Azimuth Distance (km) Brightness Sun altitude
Exits shadow 03:29:51 22° 191° (S) 2,806 8.6 -29.1°
Maximum altitude 03:34:48 38° 141° (SE) 2,174 8.4 -28.4°
Drops below altitude 10° 03:43:11 10° 77° (ENE) 3,743 10.5 -27.0°
Sets 03:46:33 0° 70° (ENE) 4,754 11.4 -26.5°
